Location: Hilton Head Island
(32.2163°N, 80.7526°W)
Time: 23:08:39
(UTC-04:00)

Explorer 7 - Pass Details

Date: 25 February 2026
Orbit: 430 x 542 km, 50.2° (Epoch: 8 March)

Event Time Altitude Azimuth Distance (km) Brightness Sun altitude
Rises 11:27:36 0° 228° (SW) 2,384 10.2 45.7°
Reaches altitude 10° 11:29:42 10° 230° (SW) 1,518 9.4 45.9°
Maximum altitude 11:33:06 80° 317° (NW) 439 7.0 46.2°
Drops below altitude 10° 11:36:33 10° 45° (NE) 1,535 9.0 46.5°
Sets 11:38:41 0° 47° (NE) 2,415 9.9 46.7°
